Regional Weather Roundup
Issued by NWS

Home | Current Version | Previous Version | Graphics & Text | Print | Product List | Glossary On
Versions: 1 2 3 4 5 6 7 8 9 10 11 12 13 14 15 16 17 18 19 20 21 22 23 24 25 26 27 28 29 30 31 32 33 34 35 36 37 38 39 40 41 42 43 44 45 46 47 48 49 50
000
ASUS43 KDTX 130410
RWRMI
MICHIGAN HOURLY REGIONAL WEATHER ROUNDUP
NATIONAL WEATHER SERVICE DETROIT/PONTIAC MI
1200 AM EDT SUN JUL 13 2014

NOTE: "FAIR" INDICATES FEW OR NO CLOUDS BELOW 12,000 FEET WITH NO
SIGNIFICANT WEATHER AND/OR OBSTRUCTION TO VISIBILITY.

MIZ047>049-052>055-059>063-066>070-074>076-081>083-130500-
SOUTHEAST LOWER MICHIGAN

CITY           SKY/WX    TMP DP  RH WIND       PRES   REMARKS
ADRIAN         CLOUDY    75  67  76 SW8       29.95F
ALMA           CLOUDY    72  68  87 S5        29.86F
ANN ARBOR      CLOUDY    74  66  76 S9        29.93F
BAD AXE        CLOUDY    70  68  92 S9        29.87F
DETROIT CITY   MOCLDY    79  67  66 SW13      29.92F
DETROIT        MOCLDY    76  67  73 S12       29.93F
FLINT          CLOUDY    75  67  76 S7        29.89F
GROSSE ILE     MOCLDY    77  70  78 SW7       29.93F
HILLSDALE      MOCLDY    74  70  88 CALM      29.95F
HOWELL         CLOUDY    73  67  82 S7        29.91F

CITY           SKY/WX    TMP DP  RH WIND       PRES   REMARKS
JACKSON        CLOUDY    74  66  76 S8        29.92F
LAMBERTVILLE   CLOUDY    77  66  69 SW3       29.96F
LANSING        MOCLDY    74  67  78 S15       29.88F
LAPEER         NOT AVBL
MASON          MOCLDY    73  67  81 S5        29.91F
MONROE         CLOUDY    75  66  73 SW7       29.93F
PONTIAC        CLOUDY    73  67  81 S8        29.91F
PORT HOPE        N/A     70  67  90 VRB6      29.84F
PORT HURON     MOCLDY    72  68  88 S7        29.91F
TRI CITIES     CLOUDY    75  68  78 SW10      29.86F
YPSILANTI      CLOUDY    78  67  68 S12       29.93F
$$
MIZ043>046-050>051-056>058-064>065-071>073-077>080-130500-
SOUTHWEST LOWER MICHIGAN

CITY           SKY/WX    TMP DP  RH WIND       PRES   REMARKS
BATTLE CREEK   CLOUDY    74  68  81 S15       29.91S
BENTON HARBOR  CLOUDY    75  71  87 S12       29.86F
BIG RAPIDS     CLOUDY    71  71 100 SW8       29.84F FOG
COLDWATER      MOCLDY    75  69  80 S8        29.92F
HOLLAND        MOCLDY    74  70  87 SE10      29.83F
GRAND RAPIDS   CLOUDY    73  70  90 S8        29.86F
KALAMAZOO      CLOUDY    74  69  85 S12       29.89F
MARSHALL       CLOUDY    73  68  83 S7        29.91F
MUSKEGON       RAIN      73  70  90 CALM      29.84F FOG
$$
MIZ016>042-130500-
NORTHERN LOWER MICHIGAN

CITY           SKY/WX    TMP DP  RH WIND       PRES   REMARKS
ALPENA         LGT RAIN  68  67  96 SE6       29.81F
BEAVER ISLAND  CLOUDY    60  60 100 CALM      29.80F FOG
BELLAIRE       LGT RAIN  69  67  94 CALM      29.81S
CADILLAC       CLOUDY    68  68 100 SW6       29.84F FOG
CHARLEVOIX     DRZL/FOG  65  65  98 CALM      29.84F VSB 3/4
FRANKFORT      FOG       63  60  91 W5        29.83F VSB 1
GAYLORD        HVY RAIN  67  65  93 W16G24    29.84S FOG
GRAYLING       LGT RAIN  68  68 100 CALM      29.83F
HARBOR SPRINGS FOG       64  64  99 CALM      29.81F VSB 1/2
HOUGHTON LAKE  CLOUDY    70  69  97 SW10      29.83F FOG
MANISTEE       CLOUDY    68  64  88 W10G16    29.84F
OSCODA         LGT RAIN  70  68  93 SW7       29.82F
PELLSTON       CLOUDY    67  65  93 CALM      29.82S
TRAVERSE CITY  CLOUDY    70  67  90 CALM      29.80F
$$
MIZ007>008-015-130500-
EASTERN UPPER MICHIGAN

CITY           SKY/WX    TMP DP  RH WIND       PRES   REMARKS
KINROSS        CLOUDY    68  64  88 SE5       29.81F
MACKINAC ISLAN CLOUDY    65  64  94 S6        29.80F
NEWBERRY       MOCLDY    62  60  94 CALM      29.78F
S. S. MARIE    CLOUDY    69  62  78 SE5       29.79F
$$
MIZ004>006-011>014-085-130500-
CENTRAL UPPER MICHIGAN

CITY           SKY/WX    TMP DP  RH WIND       PRES   REMARKS
MANISTIQUE     LGT RAIN  61  60  97 S5        29.78S
ESCANABA       CLOUDY    63  61  94 W6        29.80F
MENOMINEE      CLOUDY    64  61  88 NW5       29.82R
SAWYER-GWINN   CLOUDY    64  62  93 W6        29.81F
$$
MIZ001>003-009>011-084-130500-
WESTERN UPPER MICHIGAN

CITY           SKY/WX    TMP DP  RH WIND       PRES   REMARKS
IRON MOUNTAIN  CLOUDY    63  60  90 NW3       29.83S
HOUGHTON       PTCLDY    60  56  86 W3        29.80F
COPPER HARBOR    N/A     55  51  86 CALM      29.78F
IRONWOOD       PTCLDY    61  55  82 W3        29.83F
$$

ABBREVIATIONS USED IN REMARKS
   TC - TEMPERATURE IN CELSIUS
  WCI - WIND CHILL INDEX
   HX - HEAT INDEX
  VSB - VISIBILITY




USA.gov is the U.S. government's official web portal to all federal, state and local government web resources and services.